Weather History for George, South Africa

Change the Weather History Date:

Thursday, February 23, 2012

  Actual Average Record
Temperature  
Mean Temperature 65 °F -  
Max Temperature 73 °F 73 °F 82 °F (2002)
Min Temperature 57 °F 57 °F 51 °F (2009)
Growing Degree Days 15 (Base 50)    
Moisture  
Dew Point 55 °F    
Average Humidity 67    
Maximum Humidity 88    
Minimum Humidity 46    
Precipitation  
Precipitation 0.00 in - - ()
Sea Level Pressure  
Sea Level Pressure 29.95 in    
Wind  
Wind Speed 10 mph ()    
Max Wind Speed 17 mph    
Max Gust Speed -    
Visibility 7.4 miles    
Events      
Averages and records for this station are not official NWS values.
T = Trace of Precipitation, MM = Missing Value Source: Averaged Metar Reports

Daily Weather History Graph

Daily Weather History Graph

Search for Another Location

Airport:

Trip Planner

Search our weather history database for the weather conditions in past years. The results will help you decide how hot, cold, wet, or windy it might be!

Date:

Astronomy

Feb. 23, 2012 Rise Set
Actual Time 6:12 AM SAST 7:14 PM SAST
Civil Twilight 5:46 AM SAST 7:40 PM SAST
Nautical Twilight 5:15 AM SAST 8:11 PM SAST
Astronomical Twilight 4:44 AM SAST 8:42 PM SAST
Moon 7:33 AM SAST (2/23) 7:45 PM SAST (2/23)
Length of Visible Light 13h 54m
Length of Day
13h 02m
New Moon, 2% of the Moon is Illuminated
Feb 23
New Moon
Mar 1
First Quarter
Mar 8
Full
Mar 15
Last Quarter
Mar 22
New

Hourly Weather History & Observations

Time (SAST) Temp. Dew Point Humidity Pressure Visibility Wind Dir Wind Speed Gust Speed Precip Events Conditions
12:00 AM 66.2 °F 53.6 °F 64% 29.89 in - West 17.3 mph - N/A   Clear
1:00 AM 66.2 °F 57.2 °F 73% 29.92 in 6.2 mi WSW 17.3 mph - N/A   Mostly Cloudy
2:00 AM 64 °F 55 °F 65% 29.91 in 6 mi West 11.5 mph - -  
2:00 AM 64.4 °F 55.4 °F 73% 29.92 in 6.2 mi West 11.5 mph - N/A   Partly Cloudy
3:00 AM 64.4 °F 55.4 °F 73% 29.92 in - West 13.8 mph - N/A   Clear
4:00 AM 64.4 °F 55.4 °F 73% 29.95 in 6.2 mi West 12.7 mph - N/A   Mostly Cloudy
5:00 AM 64 °F 56 °F 67% 29.95 in 6 mi WNW 9.2 mph - -   Mostly Cloudy
5:00 AM 64.4 °F 55.4 °F 73% 29.95 in 6.2 mi WNW 9.2 mph - N/A   Mostly Cloudy
6:00 AM 60.8 °F 55.4 °F 82% 29.95 in 6.2 mi West 8.1 mph - N/A   Scattered Clouds
7:00 AM 60.8 °F 55.4 °F 82% 29.95 in 6.2 mi NW 5.8 mph - N/A   Scattered Clouds
7:26 AM 64.4 °F 55.4 °F 73% 29.95 in 6.2 mi NNW 8.1 mph - N/A   Partly Cloudy
8:00 AM 66 °F 56 °F 61% 29.98 in 12 mi WNW 9.2 mph - -   Scattered Clouds
8:00 AM 66.2 °F 55.4 °F 68% 29.98 in 6.2 mi WNW 9.2 mph - N/A   Partly Cloudy
9:00 AM 69.8 °F 55.4 °F 60% 29.98 in 6.2 mi WSW 8.1 mph - N/A   Scattered Clouds
10:00 AM 69.8 °F 57.2 °F 64% 29.98 in 6.2 mi SW 11.5 mph - N/A   Scattered Clouds
11:00 AM 71 °F 56 °F 50% 30.00 in 12 mi SSW 6.9 mph - -   Partly Cloudy
11:00 AM 69.8 °F 55.4 °F 60% 29.98 in 6.2 mi SSW 8.1 mph - N/A   Scattered Clouds
12:00 PM 71.6 °F 57.2 °F 60% 29.98 in 6.2 mi South 11.5 mph - N/A   Partly Cloudy
1:00 PM 69.8 °F 55.4 °F 60% 29.95 in 6.2 mi SSE 11.5 mph - N/A   Scattered Clouds
2:00 PM 72 °F 55 °F 46% 29.94 in 12 mi SSE 12.7 mph - -   Scattered Clouds
2:00 PM 73.4 °F 57.2 °F 57% 29.95 in 6.2 mi SSE 11.5 mph - N/A   Partly Cloudy
3:00 PM 71.6 °F 55.4 °F 57% 29.92 in 6.2 mi SSE 12.7 mph - N/A   Partly Cloudy
4:00 PM 71.6 °F 53.6 °F 53% 29.92 in - ESE 10.4 mph - N/A   Clear
5:00 PM 70 °F 55 °F 49% 29.92 in 12 mi SSE 12.7 mph - -  
5:00 PM 69.8 °F 53.6 °F 56% 29.92 in - SSE 12.7 mph - N/A   Clear
6:00 PM 68.0 °F 55.4 °F 64% 29.95 in - SSE 10.4 mph - N/A   Clear
7:00 PM 66.2 °F 55.4 °F 68% 29.95 in - ESE 8.1 mph - N/A   Clear
8:00 PM 62 °F 56 °F 73% 29.97 in 12 mi ESE 4.6 mph - -  
8:00 PM 62.6 °F 55.4 °F 77% 29.95 in - ESE 4.6 mph - N/A   Clear
9:00 PM 60.8 °F 55.4 °F 82% 29.98 in - ESE 4.6 mph - N/A   Clear
10:00 PM 59.0 °F 55.4 °F 88% 29.98 in - NW 3.5 mph - N/A   Clear
11:00 PM 57 °F 54 °F 88% 29.97 in 6 mi North 3.5 mph - -  
11:00 PM 57.2 °F 53.6 °F 88% 29.95 in - NNE 3.5 mph - N/A   Clear